Location: Johnson City
(36.3130°N, 82.3540°W)
Time: 18:15:58
(UTC-05:00)

Tiangong 2 - Visible Passes

Search period start: 18 December 2018 00:00
Search period end: 28 December 2018 00:00
Orbit: 383 x 391 km, 42.8° (Epoch: 18 December)

Date Brightness Start Highest point End Pass type
(mag) Time Alt. Az. Time Alt. Az. Time Alt. Az.
18 Dec 1.9 19:00:42 10° SW 19:03:12 44° S 19:03:12 44° S visible
19 Dec 2.5 18:02:21 10° SSW 18:05:06 27° SE 18:07:19 13° E visible
19 Dec 4.1 19:38:42 10° W 19:39:36 17° W 19:39:36 17° W visible
20 Dec 1.0 18:39:47 10° WSW 18:42:56 81° NNW 18:43:39 50° NE visible
21 Dec 3.1 19:18:09 10° W 19:19:55 25° NW 19:19:55 25° NW visible
22 Dec 1.7 18:19:04 10° W 18:22:09 47° NNW 18:23:53 22° NE visible
23 Dec 2.6 18:57:37 10° WNW 19:00:06 26° NNW 19:00:06 26° NNW visible
24 Dec 2.2 17:58:29 10° W 18:01:23 32° NNW 18:04:02 12° NE visible
24 Dec 4.2 19:36:02 10° NW 19:36:17 12° NW 19:36:17 12° NW visible
25 Dec 2.6 18:37:01 10° WNW 18:39:41 24° N 18:40:14 23° NNE visible
26 Dec 3.3 19:15:11 10° NW 19:16:27 19° NW 19:16:27 19° NW visible
27 Dec 2.5 18:16:17 10° NW 18:18:58 24° N 18:20:28 17° NE visible
